SCO15SA EGPH-EGAA

Flight info

Callsign SCO15SA
Flight time 0h 36m
Altitude 18000
Route GOSAM P600 BLACA DCT BELZU
Aircraft B738/M-SDE2E3FGHIRWXY/LB1

Departure

Time 2026-04-26 22:58
Airport Edinburgh Airport (EGPH)

Arrival

Time 2026-04-26 23:34
Airport Belfast International Airport (EGAA)
Time Latitude Longitude Altitude Speed Heading
2026-04-26 22:28 55.94801 -3.36634 112 ft 0 kts 89°
2026-04-26 22:29 55.94801 -3.36644 113 ft 0 kts 89°
2026-04-26 22:46 55.94800 -3.36661 111 ft 4 kts 89°
2026-04-26 22:46 55.94800 -3.36708 112 ft 3 kts 88°
2026-04-26 22:47 55.94795 -3.36750 112 ft 4 kts 45°
2026-04-26 22:47 55.94776 -3.36766 113 ft 4 kts 350°
2026-04-26 22:47 55.94763 -3.36759 112 ft 0 kts 329°
2026-04-26 22:50 55.94796 -3.36775 111 ft 8 kts 352°
2026-04-26 22:50 55.94866 -3.36782 115 ft 11 kts 351°
2026-04-26 22:50 55.94944 -3.36809 115 ft 13 kts 27°
2026-04-26 22:50 55.95004 -3.36671 113 ft 16 kts 58°
2026-04-26 22:51 55.95063 -3.36490 113 ft 18 kts 59°
2026-04-26 22:51 55.95134 -3.36283 115 ft 21 kts 59°
2026-04-26 22:51 55.95210 -3.36056 114 ft 21 kts 58°
2026-04-26 22:51 55.95286 -3.35834 112 ft 21 kts 58°
2026-04-26 22:52 55.95358 -3.35616 115 ft 20 kts 65°
2026-04-26 22:52 55.95363 -3.35547 115 ft 1 kts 91°
2026-04-26 22:52 55.95367 -3.35444 115 ft 12 kts 72°
2026-04-26 22:52 55.95378 -3.35406 113 ft 0 kts 62°
2026-04-26 22:55 55.95384 -3.35384 113 ft 5 kts 62°
2026-04-26 22:56 55.95409 -3.35329 114 ft 3 kts
2026-04-26 22:56 55.95429 -3.35352 113 ft 5 kts 320°
2026-04-26 22:56 55.95473 -3.35410 115 ft 10 kts 327°
2026-04-26 22:56 55.95540 -3.35485 111 ft 13 kts 332°
2026-04-26 22:57 55.95551 -3.35618 111 ft 14 kts 239°
2026-04-26 22:57 55.95402 -3.36064 110 ft 79 kts 238°
2026-04-26 22:57 55.95000 -3.37253 113 ft 142 kts 239°
2026-04-26 22:57 55.94418 -3.38957 408 ft 169 kts 239°
2026-04-26 22:58 55.93797 -3.40768 1158 ft 174 kts 239°
2026-04-26 22:58 55.93380 -3.41975 1878 ft 166 kts 240°
2026-04-26 22:58 55.92778 -3.43713 2797 ft 168 kts 241°
2026-04-26 22:58 55.92109 -3.45654 3142 ft 199 kts 240°
2026-04-26 22:59 55.91336 -3.47893 3367 ft 224 kts 240°
2026-04-26 22:59 55.90526 -3.50381 3693 ft 238 kts 248°
2026-04-26 22:59 55.90162 -3.53274 4248 ft 242 kts 262°
2026-04-26 22:59 55.89899 -3.56256 4914 ft 244 kts 261°
2026-04-26 23:00 55.89611 -3.59260 5646 ft 248 kts 261°
2026-04-26 23:00 55.89314 -3.62273 6599 ft 247 kts 261°
2026-04-26 23:00 55.89010 -3.65316 7491 ft 249 kts 261°
2026-04-26 23:00 55.88705 -3.68371 8335 ft 252 kts 260°
2026-04-26 23:01 55.88394 -3.71463 9184 ft 255 kts 260°
2026-04-26 23:01 55.88077 -3.74597 10061 ft 258 kts 260°
2026-04-26 23:01 55.87757 -3.77762 10842 ft 261 kts 260°
2026-04-26 23:01 55.87436 -3.80962 11632 ft 264 kts 260°
2026-04-26 23:02 55.87114 -3.84199 12440 ft 267 kts 260°
2026-04-26 23:02 55.86788 -3.87485 13276 ft 271 kts 260°
2026-04-26 23:02 55.86438 -3.90999 13208 ft 308 kts 260°
2026-04-26 23:02 55.86044 -3.94941 13188 ft 338 kts 260°
2026-04-26 23:03 55.85615 -3.99227 13158 ft 362 kts 260°
2026-04-26 23:03 55.85189 -4.03447 13370 ft 354 kts 260°
2026-04-26 23:03 55.84748 -4.07798 14050 ft 357 kts 260°
2026-04-26 23:03 55.84028 -4.11982 15012 ft 355 kts 243°
2026-04-26 23:04 55.82577 -4.15476 15862 ft 359 kts 227°
2026-04-26 23:04 55.80597 -4.18249 16605 ft 367 kts 217°
2026-04-26 23:04 55.78496 -4.20862 17302 ft 369 kts 224°
2026-04-26 23:04 55.76764 -4.24217 18014 ft 370 kts 234°
2026-04-26 23:05 55.75166 -4.27812 18285 ft 370 kts 235°
2026-04-26 23:05 55.73597 -4.31420 18308 ft 369 kts 235°
2026-04-26 23:05 55.72022 -4.35040 18320 ft 371 kts 235°
2026-04-26 23:05 55.70435 -4.38650 18305 ft 371 kts 235°
2026-04-26 23:06 55.68840 -4.42243 18301 ft 369 kts 234°
2026-04-26 23:06 55.67270 -4.45744 18294 ft 356 kts 234°
2026-04-26 23:06 55.65741 -4.49125 18288 ft 350 kts 233°
2026-04-26 23:06 55.63993 -4.52135 18303 ft 355 kts 221°
2026-04-26 23:07 55.61881 -4.54464 18307 ft 361 kts 210°
2026-04-26 23:07 55.59604 -4.56354 18316 ft 363 kts 209°
2026-04-26 23:07 55.57305 -4.58230 18309 ft 364 kts 209°
2026-04-26 23:07 55.56535 -4.58858 18306 ft 364 kts 209°
2026-04-26 23:08 55.54403 -4.60601 18319 ft 364 kts 209°
2026-04-26 23:08 55.52107 -4.62485 18318 ft 364 kts 209°
2026-04-26 23:08 55.49817 -4.64373 18316 ft 363 kts 209°
2026-04-26 23:09 55.47529 -4.66262 18319 ft 362 kts 209°
2026-04-26 23:09 55.45247 -4.68148 18319 ft 362 kts 210°
2026-04-26 23:09 55.42970 -4.70030 18284 ft 361 kts 209°
2026-04-26 23:09 55.40700 -4.71905 18294 ft 361 kts 209°
2026-04-26 23:10 55.38420 -4.73786 18295 ft 361 kts 209°
2026-04-26 23:10 55.36146 -4.75660 18305 ft 361 kts 209°
2026-04-26 23:10 55.33867 -4.77537 18307 ft 362 kts 209°
2026-04-26 23:10 55.31586 -4.79411 18298 ft 362 kts 209°
2026-04-26 23:11 55.29310 -4.81279 18298 ft 357 kts 209°
2026-04-26 23:11 55.27094 -4.83091 18229 ft 346 kts 209°
2026-04-26 23:11 55.24926 -4.84865 17956 ft 341 kts 209°
2026-04-26 23:11 55.22779 -4.86623 17566 ft 338 kts 209°
2026-04-26 23:12 55.20662 -4.88354 17212 ft 334 kts 209°
2026-04-26 23:12 55.18562 -4.90071 16816 ft 332 kts 208°
2026-04-26 23:12 55.16477 -4.91771 16413 ft 329 kts 208°
2026-04-26 23:12 55.14409 -4.93453 16032 ft 327 kts 208°
2026-04-26 23:13 55.12412 -4.95283 15637 ft 322 kts 219°
2026-04-26 23:13 55.10867 -4.98034 15231 ft 315 kts 237°
2026-04-26 23:13 55.09891 -5.01295 14821 ft 313 kts 249°
2026-04-26 23:13 55.09094 -5.04767 14433 ft 312 kts 250°
2026-04-26 23:14 55.08322 -5.08293 14036 ft 310 kts 250°
2026-04-26 23:14 55.07560 -5.11799 13623 ft 309 kts 250°
2026-04-26 23:14 55.06785 -5.15341 13228 ft 307 kts 250°
2026-04-26 23:14 55.06032 -5.18754 12854 ft 304 kts 250°
2026-04-26 23:15 55.05261 -5.22222 12479 ft 302 kts 250°
2026-04-26 23:15 55.04513 -5.25571 12125 ft 299 kts 250°
2026-04-26 23:15 55.03755 -5.28946 11765 ft 297 kts 250°
2026-04-26 23:15 55.03003 -5.32288 11411 ft 295 kts 250°
2026-04-26 23:16 55.02254 -5.35606 11061 ft 294 kts 250°
2026-04-26 23:16 55.01508 -5.38903 10739 ft 291 kts 250°
2026-04-26 23:16 55.00777 -5.42122 10629 ft 281 kts 250°
2026-04-26 23:16 55.00069 -5.45239 10492 ft 272 kts 250°
2026-04-26 23:17 54.99382 -5.48257 10377 ft 264 kts 250°
2026-04-26 23:17 54.98713 -5.51191 10170 ft 259 kts 250°
2026-04-26 23:17 54.98051 -5.54095 9867 ft 257 kts 250°
2026-04-26 23:17 54.97393 -5.56976 9611 ft 255 kts 250°
2026-04-26 23:18 54.96747 -5.59800 9324 ft 246 kts 250°
2026-04-26 23:18 54.96123 -5.62522 9045 ft 238 kts 250°
2026-04-26 23:18 54.95519 -5.65156 8784 ft 231 kts 250°
2026-04-26 23:18 54.95024 -5.67767 8508 ft 226 kts 265°
2026-04-26 23:19 54.95285 -5.70400 8254 ft 223 kts 297°
2026-04-26 23:19 54.96326 -5.72379 8010 ft 224 kts 321°
2026-04-26 23:19 54.97612 -5.73904 7771 ft 224 kts 324°
2026-04-26 23:19 54.98857 -5.75503 7511 ft 221 kts 313°
2026-04-26 23:20 54.99910 -5.77449 7273 ft 220 kts 311°
2026-04-26 23:20 55.00954 -5.79368 7059 ft 216 kts 311°
2026-04-26 23:20 55.01928 -5.81300 6794 ft 209 kts 299°
2026-04-26 23:20 55.02395 -5.83641 6538 ft 202 kts 281°
2026-04-26 23:21 55.02680 -5.86004 6271 ft 197 kts 281°
2026-04-26 23:21 55.02860 -5.88338 5985 ft 194 kts 265°
2026-04-26 23:21 55.02634 -5.90626 5740 ft 189 kts 261°
2026-04-26 23:21 55.02405 -5.92873 5475 ft 187 kts 261°
2026-04-26 23:22 55.02063 -5.95037 5210 ft 186 kts 245°
2026-04-26 23:22 55.01373 -5.96936 4954 ft 189 kts 226°
2026-04-26 23:22 55.00183 -5.97910 4695 ft 196 kts 187°
2026-04-26 23:22 54.98873 -5.97368 4448 ft 197 kts 148°
2026-04-26 23:23 54.97920 -5.95695 4223 ft 193 kts 131°
2026-04-26 23:23 54.97094 -5.93876 3941 ft 192 kts 117°
2026-04-26 23:23 54.96903 -5.91671 3720 ft 180 kts 71°
2026-04-26 23:23 54.97583 -5.89965 3793 ft 183 kts 28°
2026-04-26 23:24 54.98912 -5.89373 3788 ft 214 kts 353°
2026-04-26 23:24 55.00302 -5.90298 3748 ft 218 kts 320°
2026-04-26 23:24 55.01148 -5.92391 3618 ft 217 kts 287°
2026-04-26 23:24 55.01163 -5.95008 3524 ft 221 kts 255°
2026-04-26 23:25 55.00599 -5.97550 3458 ft 223 kts 249°
2026-04-26 23:25 54.99984 -5.99988 3340 ft 224 kts 248°
2026-04-26 23:25 54.99371 -6.02393 3195 ft 222 kts 248°
2026-04-26 23:25 54.98744 -6.04836 3091 ft 220 kts 248°
2026-04-26 23:26 54.98116 -6.07271 2995 ft 220 kts 248°
2026-04-26 23:26 54.97488 -6.09703 2905 ft 221 kts 248°
2026-04-26 23:26 54.96859 -6.12140 2820 ft 221 kts 248°
2026-04-26 23:26 54.96230 -6.14573 2767 ft 220 kts 248°
2026-04-26 23:27 54.95601 -6.16991 2755 ft 219 kts 248°
2026-04-26 23:27 54.94973 -6.19401 2771 ft 219 kts 248°
2026-04-26 23:27 54.94339 -6.21830 2772 ft 221 kts 248°
2026-04-26 23:27 54.93918 -6.23441 2777 ft 222 kts 248°
2026-04-26 23:28 54.93010 -6.26674 2768 ft 225 kts 236°
2026-04-26 23:28 54.91783 -6.28342 2753 ft 229 kts 202°
2026-04-26 23:28 54.90231 -6.29002 2770 ft 230 kts 193°
2026-04-26 23:28 54.88659 -6.29489 2768 ft 228 kts 192°
2026-04-26 23:29 54.87135 -6.29943 2734 ft 217 kts 192°
2026-04-26 23:29 54.85689 -6.30362 2706 ft 205 kts 192°
2026-04-26 23:29 54.84289 -6.30761 2618 ft 206 kts 192°
2026-04-26 23:29 54.82885 -6.31171 2574 ft 202 kts 192°
2026-04-26 23:30 54.81495 -6.31518 2542 ft 204 kts 182°
2026-04-26 23:30 54.80142 -6.30925 2526 ft 196 kts 159°
2026-04-26 23:30 54.78902 -6.30198 2505 ft 181 kts 165°
2026-04-26 23:30 54.77724 -6.29568 2511 ft 179 kts 164°
2026-04-26 23:31 54.76509 -6.28894 2478 ft 183 kts 163°
2026-04-26 23:31 54.75305 -6.28217 2255 ft 178 kts 163°
2026-04-26 23:31 54.74160 -6.27571 2018 ft 168 kts 163°
2026-04-26 23:31 54.73078 -6.26962 1840 ft 162 kts 163°
2026-04-26 23:32 54.72021 -6.26368 1573 ft 155 kts 163°
2026-04-26 23:32 54.71016 -6.25803 1347 ft 149 kts 162°
2026-04-26 23:32 54.70052 -6.25263 1136 ft 146 kts 161°
2026-04-26 23:32 54.69075 -6.24723 941 ft 146 kts 161°
2026-04-26 23:33 54.68112 -6.24183 805 ft 143 kts 162°
2026-04-26 23:33 54.67182 -6.23634 572 ft 140 kts 162°
2026-04-26 23:33 54.66282 -6.23130 366 ft 132 kts 163°
2026-04-26 23:33 54.65418 -6.22653 272 ft 128 kts 159°
2026-04-26 23:34 54.64690 -6.22244 271 ft 92 kts 162°
2026-04-26 23:34 54.64318 -6.22036 274 ft 16 kts 162°
2026-04-26 23:34 54.64235 -6.21940 271 ft 16 kts 132°
2026-04-26 23:34 54.64221 -6.21996 271 ft 12 kts 342°
2026-04-26 23:35 54.64328 -6.22044 271 ft 22 kts 344°
2026-04-26 23:35 54.64494 -6.22111 271 ft 17 kts 35°
2026-04-26 23:35 54.64606 -6.22044 271 ft 19 kts 352°
2026-04-26 23:35 54.64747 -6.22117 271 ft 23 kts 341°
2026-04-26 23:36 54.64899 -6.22195 271 ft 20 kts 345°
2026-04-26 23:36 54.65027 -6.22281 271 ft 20 kts 341°
2026-04-26 23:36 54.65152 -6.22234 271 ft 19 kts 36°
2026-04-26 23:36 54.65257 -6.22103 271 ft 19 kts 36°
2026-04-26 23:37 54.65360 -6.21975 271 ft 18 kts 36°
2026-04-26 23:37 54.65466 -6.21874 271 ft 17 kts 20°
2026-04-26 23:37 54.65568 -6.21771 271 ft 17 kts 41°
2026-04-26 23:37 54.65633 -6.21603 271 ft 17 kts 60°
2026-04-26 23:38 54.65690 -6.21435 272 ft 16 kts 66°
2026-04-26 23:38 54.65729 -6.21248 271 ft 17 kts 72°
2026-04-26 23:38 54.65771 -6.21052 273 ft 17 kts 64°
2026-04-26 23:38 54.65853 -6.20922 271 ft 17 kts
2026-04-26 23:39 54.65929 -6.20983 271 ft 9 kts 338°
2026-04-26 23:39 54.65990 -6.21028 274 ft 10 kts 336°
2026-04-26 23:39 54.66044 -6.21120 271 ft 12 kts 290°
2026-04-26 23:39 54.66017 -6.21267 271 ft 14 kts 245°
2026-04-26 23:40 54.65977 -6.21414 273 ft 13 kts 245°
2026-04-26 23:40 54.65950 -6.21564 271 ft 12 kts 287°
2026-04-26 23:40 54.66000 -6.21626 275 ft 8 kts 336°
2026-04-26 23:40 54.66013 -6.21707 271 ft 8 kts 248°
2026-04-26 23:41 54.66000 -6.21758 271 ft 2 kts 246°
2026-04-26 23:41 54.65998 -6.21765 271 ft 0 kts 246°